| time (UTC) | temp F | wind direction | speed knots | gust knots | rain 1hr in | rain 24hr in | rain mn in | humidity % | barometer mb |
| 20260505194543 | 82 | 318 | 4.3 | 13.0 | 0.00 | 0.00 | 0.00 | 29 | 1011.2 |
| 20260505193042 | 83 | 308 | 4.3 | 9.6 | 0.00 | 0.00 | 0.00 | 27 | 1011.2 |
| 20260505191546 | 84 | 352 | 3.5 | 13.0 | 0.00 | 0.00 | 0.00 | 30 | 1011.5 |
| 20260505190049 | 83 | 167 | 4.3 | 10.4 | 0.00 | 0.00 | 0.00 | 30 | 1011.4 |
| 20260505184549 | 84 | 345 | 3.5 | 8.7 | 0.00 | 0.00 | 0.00 | 31 | 1011.8 |
| 20260505183047 | 84 | 34 | 3.5 | 11.3 | 0.00 | 0.00 | 0.00 | 28 | 1012.1 |
| 20260505181539 | 84 | 292 | 3.5 | 10.4 | 0.00 | 0.00 | 0.00 | 28 | 1012.3 |
| 20260505180057 | 83 | 261 | 3.5 | 10.4 | 0.00 | 0.00 | 0.00 | 30 | 1012.5 |
| 20260505174545 | 83 | 341 | 2.6 | 12.2 | 0.00 | 0.00 | 0.00 | 31 | 1012.6 |
| 20260505173041 | 82 | 355 | 2.6 | 10.4 | 0.00 | 0.00 | 0.00 | 33 | 1012.7 |
| 20260505171546 | 82 | 327 | 4.3 | 8.7 | 0.00 | 0.00 | 0.00 | 33 | 1012.7 |
| 20260505170043 | 82 | 279 | 2.6 | 7.8 | 0.00 | 0.00 | 0.00 | 33 | 1013.0 |
| 20260505164542 | 82 | 14 | 1.7 | 11.3 | 0.00 | 0.00 | 0.00 | 36 | 1013.1 |
| 20260505163044 | 81 | 323 | 3.5 | 10.4 | 0.00 | 0.00 | 0.00 | 35 | 1013.4 |
| 20260505161544 | 81 | 301 | 3.5 | 9.6 | 0.00 | 0.00 | 0.00 | 38 | 1013.4 |
| 20260505153045 | 78 | 38 | 1.7 | 7.8 | 0.00 | 0.00 | 0.00 | 40 | 1013.7 |
| 20260505151544 | 77 | 355 | 2.6 | 4.3 | 0.00 | 0.00 | 0.00 | 43 | 1013.9 |
| 20260505124551 | 62 | 337 | 0.9 | 3.5 | 0.00 | 0.00 | 0.00 | 61 | 1014.5 |
| 20260505123045 | 61 | 331 | 0.9 | 3.5 | 0.00 | 0.00 | 0.00 | 64 | 1014.6 |
| 20260505121548 | 59 | 0 | 0.9 | 2.6 | 0.00 | 0.00 | 0.00 | 66 | 1014.2 |
| 20260505120040 | 58 | 307 | 0.9 | 2.6 | 0.00 | 0.00 | 0.00 | 69 | 1014.5 |
| 20260505114539 | 55 | 0 | 0.0 | 0.9 | 0.00 | 0.00 | 0.00 | 77 | 1014.3 |
| 20260505113044 | 52 | 0 | 0.0 | 0.9 | 0.00 | 0.00 | 0.00 | 82 | 1013.9 |
| 20260505111544 | 50 | 0 | 0.0 | 0.0 | 0.00 | 0.00 | 0.00 | 83 | 1013.8 |
| 20260505101538 | 51 | 0 | 0.0 | 0.9 | 0.00 | 0.00 | 0.00 | 78 | 1013.3 |
| 20260505100045 | 52 | 317 | 0.0 | 1.7 | 0.00 | 0.00 | 0.00 | 77 | 1013.4 |
| 20260505094550 | 52 | 0 | 0.0 | 1.7 | 0.00 | 0.00 | 0.00 | 74 | 1013.3 |
| 20260505093051 | 53 | 0 | 0.0 | 2.6 | 0.00 | 0.00 | 0.00 | 73 | 1013.2 |
| 20260505091543 | 53 | 0 | 0.0 | 0.9 | 0.00 | 0.00 | 0.00 | 72 | 1013.3 |
| 20260505090038 | 53 | 330 | 0.0 | 0.9 | 0.00 | 0.00 | 0.00 | 72 | 1013.2 |
| 20260505084546 | 55 | 0 | 0.0 | 2.6 | 0.00 | 0.00 | 0.00 | 68 | 1013.1 |
| 20260505083100 | 57 | 327 | 0.0 | 3.5 | 0.00 | 0.00 | 0.00 | 64 | 1013.0 |
| 20260505081552 | 57 | 94 | 0.9 | 3.5 | 0.00 | 0.00 | 0.00 | 65 | 1012.9 |
| 20260505080049 | 57 | 117 | 0.9 | 2.6 | 0.00 | 0.00 | 0.00 | 67 | 1012.8 |
| 20260505074546 | 56 | 97 | 0.9 | 2.6 | 0.00 | 0.00 | 0.00 | 68 | 1012.9 |
| 20260505073040 | 55 | 133 | 0.9 | 2.6 | 0.00 | 0.00 | 0.00 | 73 | 1012.5 |
| 20260505071544 | 56 | 0 | 0.0 | 1.7 | 0.00 | 0.00 | 0.00 | 69 | 1012.4 |
| 20260505070100 | 58 | 90 | 0.0 | 2.6 | 0.00 | 0.00 | 0.00 | 65 | 1012.3 |
| 20260505064553 | 58 | 97 | 0.9 | 2.6 | 0.00 | 0.00 | 0.00 | 67 | 1012.3 |
| 20260505063048 | 54 | 106 | 0.0 | 1.7 | 0.00 | 0.00 | 0.00 | 75 | 1012.4 |
| 20260505061603 | 54 | 0 | 0.0 | 2.6 | 0.00 | 0.00 | 0.00 | 77 | 1012.6 |
| 20260505060053 | 53 | 0 | 0.0 | 0.9 | 0.00 | 0.00 | 0.00 | 78 | 1012.4 |
| 20260505054545 | 53 | 0 | 0.0 | 0.0 | 0.00 | 0.00 | 0.00 | 78 | 1012.4 |
| 20260505053045 | 54 | 0 | 0.0 | 1.7 | 0.00 | 0.00 | 0.00 | 78 | 1012.4 |
| 20260505051543 | 54 | 0 | 0.0 | 0.9 | 0.00 | 0.00 | 0.00 | 77 | 1012.5 |
| 20260505041552 | 54 | 0 | 0.0 | 0.0 | 0.00 | 0.00 | 0.00 | 78 | 1012.2 |
| 20260505040058 | 55 | 0 | 0.0 | 0.0 | 0.00 | 0.00 | 0.00 | 75 | 1012.1 |
| 20260505034545 | 55 | 0 | 0.0 | 0.0 | 0.00 | 0.00 | 0.00 | 75 | 1012.1 |
| 20260505033045 | 55 | 0 | 0.0 | 0.0 | 0.00 | 0.00 | 0.00 | 76 | 1012.1 |
| 20260505031550 | 56 | 0 | 0.0 | 0.0 | 0.00 | 0.00 | 0.00 | 74 | 1012.1 |
| 20260505030044 | 56 | 0 | 0.0 | 0.0 | 0.00 | 0.00 | 0.00 | 74 | 1012.0 |
| 20260505024542 | 57 | 0 | 0.0 | 0.0 | 0.00 | 0.00 | 0.00 | 72 | 1012.2 |
| 20260505023040 | 58 | 0 | 0.0 | 0.0 | 0.00 | 0.00 | 0.00 | 72 | 1012.2 |
| 20260505021548 | 58 | 0 | 0.0 | 0.0 | 0.00 | 0.00 | 0.00 | 71 | 1012.3 |
| 20260505020050 | 58 | 0 | 0.0 | 0.9 | 0.00 | 0.00 | 0.00 | 70 | 1012.2 |
| 20260505014548 | 59 | 0 | 0.0 | 0.0 | 0.00 | 0.00 | 0.00 | 68 | 1012.1 |
| 20260505013042 | 60 | 0 | 0.0 | 0.0 | 0.00 | 0.00 | 0.00 | 67 | 1012.1 |
| 20260505011549 | 61 | 0 | 0.0 | 0.9 | 0.00 | 0.00 | 0.00 | 65 | 1011.9 |
| 20260505010058 | 61 | 0 | 0.0 | 0.9 | 0.00 | 0.00 | 0.00 | 65 | 1011.8 |
| 20260505004547 | 62 | 0 | 0.0 | 0.9 | 0.00 | 0.00 | 0.00 | 65 | 1011.4 |
| 20260505003043 | 63 | 0 | 0.0 | 0.9 | 0.00 | 0.00 | 0.00 | 63 | 1011.3 |
| 20260505001542 | 64 | 0 | 0.0 | 0.9 | 0.00 | 0.00 | 0.00 | 61 | 1011.1 |
| 20260505000056 | 65 | 0 | 0.0 | 0.9 | 0.00 | 0.00 | 0.00 | 61 | 1011.1 |
| 20260504234538 | 66 | 0 | 0.0 | 2.6 | 0.00 | 0.00 | 0.00 | 60 | 1010.9 |
| 20260504233041 | 68 | 0 | 0.0 | 1.7 | 0.00 | 0.00 | 0.00 | 61 | 1011.0 |
| 20260504231541 | 69 | 0 | 0.0 | 2.6 | 0.00 | 0.00 | 0.00 | 56 | 1011.0 |
| 20260504230043 | 71 | 0 | 1.7 | 5.2 | 0.00 | 0.00 | 0.00 | 46 | 1011.4 |
| 20260504224541 | 73 | 310 | 1.7 | 6.1 | 0.00 | 0.00 | 0.00 | 41 | 1011.2 |
| 20260504223047 | 73 | 303 | 1.7 | 7.8 | 0.00 | 0.00 | 0.00 | 40 | 1010.9 |
| 20260504221547 | 76 | 17 | 0.9 | 7.0 | 0.00 | 0.00 | 0.00 | 39 | 1011.0 |
| 20260504220053 | 76 | 0 | 2.6 | 10.4 | 0.00 | 0.00 | 0.00 | 37 | 1011.0 |
| 20260504214544 | 77 | 338 | 0.9 | 7.0 | 0.00 | 0.00 | 0.00 | 36 | 1011.2 |
| 20260504213053 | 77 | 345 | 2.6 | 9.6 | 0.00 | 0.00 | 0.00 | 36 | 1011.1 |
| 20260504211542 | 78 | 71 | 1.7 | 10.4 | 0.00 | 0.00 | 0.00 | 39 | 1011.1 |
| 20260504210048 | 77 | 0 | 1.7 | 7.8 | 0.00 | 0.00 | 0.00 | 37 | 1011.0 |
| 20260504204550 | 77 | 145 | 1.7 | 5.2 | 0.00 | 0.00 | 0.00 | 36 | 1010.9 |
| 20260504203048 | 76 | 315 | 1.7 | 7.8 | 0.00 | 0.00 | 0.00 | 40 | 1011.1 |
| 20260504201542 | 75 | 295 | 1.7 | 4.3 | 0.00 | 0.00 | 0.00 | 37 | 1011.3 |
| 20260504200049 | 76 | 340 | 3.5 | 11.3 | 0.00 | 0.00 | 0.00 | 37 | 1011.7 |